Theta_e
363 362 361 364 357 354 351 349 343 337 339 347 346 357 356 357 359 360 361 347 345 344 342 341 341 341 340 341 342 342 346 351 351 351 351 352 354 355
361 360 361 364 360 356 353 352 348 343 339 348 349 354 354 354 358 360 358 346 343 341 340 339 339 338 338 338 338 339 341 344 349 348 348 349 350 351
359 356 356 359 357 363 355 352 350 348 343 346 350 354 351 352 352 354 352 350 346 339 338 336 335 334 332 331 333 336 338 340 340 344 346 347 348 348
358 355 356 357 359 359 355 357 354 354 348 349 351 349 350 350 349 348 346 347 339 336 334 333 330 329 329 329 329 329 332 335 336 335 338 344 346 346
357 356 356 358 357 355 360 358 354 355 353 349 348 349 347 346 342 343 344 344 338 336 331 330 329 329 328 327 327 326 326 327 329 328 330 332 340 344
357 357 357 357 357 358 359 358 360 355 354 350 348 348 345 343 343 338 335 339 339 339 338 335 333 329 328 327 326 327 324 322 322 323 324 325 331 336
358 359 358 357 350 351 362 360 361 354 352 350 348 347 345 340 340 340 338 337 337 339 340 339 338 338 338 327 330 329 327 324 322 321 320 320 322 327
356 359 360 353 351 342 341 341 353 359 353 351 348 347 349 348 346 342 340 334 332 339 335 337 340 338 340 340 334 327 326 324 322 321 320 319 320 322
357 356 357 354 352 358 346 338 339 338 341 359 354 351 351 354 352 343 340 338 338 340 336 335 337 336 340 339 326 324 323 322 321 321 320 319 319 319
355 356 356 356 357 355 356 355 356 357 353 351 354 360 357 361 355 352 348 345 344 343 342 335 334 336 340 340 327 325 322 320 319 319 318 316 315 314
348 349 350 350 340 334 348 348 352 353 345 336 338 339 336 337 346 352 345 338 334 332 335 335 332 334 328 333 334 324 321 318 317 317 317 315 313 311
336 338 330 334 328 325 338 342 341 345 352 354 353 342 336 345 335 352 349 338 338 332 332 332 327 330 330 332 333 332 329 317 314 313 314 314 311 324
326 328 331 322 318 315 316 333 335 340 345 351 351 353 351 346 346 350 352 347 341 340 339 339 326 323 331 327 319 322 323 323 319 317 309 309 308 318
324 324 324 316 312 312 317 321 321 323 334 340 342 345 345 345 344 345 349 352 351 351 341 340 333 329 327 321 326 324 323 321 319 317 317 312 308 311
325 322 315 311 310 315 316 318 318 326 335 338 338 341 344 351 350 347 346 347 347 346 337 336 339 332 334 331 329 322 319 319 319 316 314 314 314 317
320 321 318 314 313 316 319 326 333 335 334 338 339 342 349 348 347 347 341 340 337 335 333 334 333 331 326 326 328 320 319 318 315 316 314 314 314 315
309 321 321 323 326 331 332 334 337 338 332 337 337 335 339 344 343 345 342 338 334 335 329 327 331 330 329 327 321 321 318 318 318 315 312 310 311 312
320 321 321 320 320 322 325 326 330 332 335 336 335 335 334 338 339 340 339 336 333 333 333 327 323 319 318 319 324 323 320 319 316 314 313 310 308 309
324 321 321 320 318 319 319 321 322 325 327 329 330 332 335 339 337 337 336 333 332 333 333 325 322 320 315 315 320 318 318 316 312 309 311 309 308 308
326 322 321 321 321 319 318 319 321 322 323 324 325 327 327 327 328 331 331 331 331 330 329 324 323 321 320 319 318 319 310 315 310 309 309 310 310 311
326 325 323 323 323 323 324 323 322 321 322 323 324 324 325 325 325 324 324 314 318 324 323 320 320 319 319 317 313 312 313 308 312 309 308 307 305 305
328 328 327 326 324 323 327 327 325 323 323 323 322 324 325 325 324 324 323 322 320 321 318 319 320 318 317 315 314 312 309 310 309 310 310 310 307 302
331 330 330 330 329 328 327 327 326 326 327 327 327 324 324 323 325 326 324 322 320 320 319 318 317 319 317 315 312 310 308 307 308 307 308 310 312 312
Wind_Speed
4 5 5 4 4 4 5 4 4 3 3 3 4 3 4 5 4 8 8 11 11 10 10 8 6 4 2 1 2 3 5 8 9 8 10 11 10 12
4 5 5 3 3 4 6 5 5 4 5 1 3 3 3 4 4 6 6 9 9 8 9 8 6 4 2 2 2 2 3 5 4 6 5 9 9 9
4 4 7 5 4 4 5 6 6 6 6 5 3 3 4 5 4 5 5 6 5 7 7 7 5 4 1 1 3 3 3 3 4 4 6 9 10 9
6 7 8 5 7 7 6 7 7 6 7 9 3 4 5 6 5 5 4 4 4 7 7 7 6 4 4 4 5 5 6 5 3 2 3 6 8 9
9 9 9 8 8 7 7 6 6 6 7 7 6 3 3 2 2 3 6 7 4 7 6 6 7 7 6 5 6 7 7 7 6 4 3 5 8 11
10 10 10 10 10 10 9 9 8 8 7 8 8 6 6 3 3 3 3 4 6 6 8 6 7 9 9 8 8 8 8 8 8 7 6 7 8 9
10 11 11 12 11 11 6 9 9 9 8 8 8 7 8 4 6 4 5 6 6 6 7 7 8 8 9 11 10 11 9 9 9 9 8 8 8 9
11 11 11 11 13 14 14 15 12 10 12 10 9 11 12 10 8 7 7 4 4 8 9 9 8 9 8 7 6 5 8 10 10 9 10 10 10 10
10 10 10 9 9 12 11 13 13 15 15 12 13 13 12 12 10 10 10 9 8 4 9 7 7 9 8 6 7 10 11 11 11 11 10 10 10 10
7 9 9 11 11 11 11 12 12 13 13 12 15 14 14 11 13 12 12 11 7 5 9 6 5 7 7 9 12 14 13 12 11 11 10 10 11 11
8 9 10 11 10 5 11 12 14 13 9 14 16 14 9 10 10 7 7 6 5 5 8 4 5 5 4 7 8 16 14 12 11 11 11 10 11 10
7 8 8 11 11 10 8 10 12 13 13 13 8 12 11 11 11 15 10 9 6 5 8 8 6 5 4 4 7 7 10 12 10 10 10 10 9 5
6 7 7 7 10 9 10 8 9 9 13 12 11 9 8 8 9 12 12 10 11 10 8 8 4 4 4 2 2 4 6 5 6 5 8 9 11 11
7 6 9 10 10 14 11 13 13 9 6 7 6 6 7 7 7 9 11 10 10 11 12 15 5 7 6 3 3 4 6 5 6 4 4 4 11 13
6 8 13 13 14 12 15 13 10 5 6 6 8 8 7 8 7 6 9 11 10 7 9 14 7 8 7 5 3 4 4 5 6 5 5 6 5 6
4 5 8 13 16 15 11 8 6 5 5 5 7 8 7 7 7 6 5 6 7 4 6 11 11 8 5 6 5 4 6 4 5 6 5 5 4 3
4 3 4 5 7 6 5 6 6 4 3 5 6 7 8 6 7 6 5 4 6 5 4 5 8 7 6 4 4 6 6 5 6 6 5 5 4 5
2 4 4 6 6 6 6 6 5 4 4 4 5 5 5 6 6 4 3 5 7 7 5 4 5 3 1 3 8 5 6 6 5 8 6 6 5 6
6 7 6 5 5 5 5 5 4 5 5 3 3 4 4 6 4 5 4 5 5 5 3 4 5 4 5 5 1 11 5 5 5 6 7 7 5 8
6 6 7 7 6 5 5 5 5 4 3 3 3 3 3 2 2 3 3 3 4 3 3 2 4 6 6 3 2 1 9 5 5 5 5 3 3 11
5 6 6 5 5 6 6 5 5 4 4 3 2 2 2 2 2 2 2 3 2 0 2 1 0 2 3 3 1 0 1 1 4 5 4 4 4 4
4 4 5 3 4 4 6 6 5 5 5 4 3 3 3 2 1 1 1 1 1 0 1 2 3 4 2 3 2 2 1 2 3 5 10 4 5 6
2 3 3 3 3 3 4 4 4 4 4 3 3 3 3 3 3 3 4 4 4 4 5 3 3 1 2 2 2 2 3 2 2 4 5 6 1 6
Wind_Direction
244 220 234 230 224 227 229 237 276 278 249 171 229 221 233 232 218 215 212 167 179 181 169 178 188 198 221 290 340 339 328 259 230 233 234 235 219 221
230 245 248 261 236 220 222 220 228 262 272 239 200 201 224 233 205 212 213 153 171 183 173 170 171 172 178 239 265 303 328 339 249 236 228 213 220 235
231 231 267 258 260 244 225 219 226 226 247 257 245 185 225 216 197 211 185 194 174 179 172 169 167 163 176 295 304 295 295 313 333 285 248 224 216 224
251 250 256 247 239 242 236 231 232 229 239 255 239 222 232 219 190 193 197 213 197 180 184 176 173 199 213 250 269 273 281 270 284 300 286 227 217 225
266 259 257 253 248 250 239 247 241 235 227 249 252 215 200 162 170 212 201 214 219 149 191 198 197 205 214 228 250 253 251 265 260 264 282 269 219 214
265 265 262 256 252 250 244 241 242 240 232 239 245 229 216 175 187 188 198 217 229 215 219 272 188 199 216 219 235 244 241 239 250 256 268 275 239 219
261 258 253 251 250 250 252 250 238 242 243 240 243 233 219 191 207 188 217 201 211 217 234 226 220 219 208 216 247 232 236 239 242 244 252 264 256 230
258 261 262 257 248 235 230 244 249 242 243 247 240 238 242 226 216 206 206 180 230 199 213 231 221 229 234 225 194 226 225 234 237 242 242 250 249 234
257 265 271 267 262 265 246 230 241 237 240 245 243 242 242 231 218 213 213 216 223 162 209 235 206 237 234 229 188 220 232 238 239 240 238 239 243 235
259 267 273 276 272 273 276 271 259 250 234 238 240 242 237 239 217 219 220 226 239 205 202 239 163 229 225 240 186 216 224 230 239 243 244 238 234 230
289 283 281 277 283 288 284 274 271 261 241 223 239 251 268 233 219 205 197 187 205 199 189 237 182 222 210 237 234 212 222 222 234 243 250 243 231 220
287 286 279 283 289 289 277 273 269 269 269 266 239 247 237 237 223 217 209 202 207 198 190 201 168 177 243 211 225 222 223 217 227 237 243 246 219 212
290 285 285 339 309 311 309 281 262 290 278 273 264 250 227 214 213 216 219 205 219 235 171 199 176 174 208 173 221 209 215 207 213 218 225 231 202 207
291 289 283 265 290 293 290 286 270 263 258 257 263 256 242 230 213 219 222 223 234 239 166 194 193 190 186 178 239 191 222 220 211 211 216 192 212 217
291 295 291 281 271 264 249 253 256 243 245 241 245 244 241 245 223 207 212 220 224 214 171 194 207 194 209 215 198 202 176 209 207 209 191 183 207 203
292 296 294 287 277 271 283 265 238 223 234 248 258 261 259 233 227 206 208 202 211 194 196 197 203 187 201 221 213 205 198 212 190 207 192 197 181 200
300 342 347 351 332 323 312 296 281 247 226 247 262 265 257 237 232 220 197 193 203 205 187 200 210 207 219 183 200 214 197 212 203 178 180 197 188 178
70 29 5 360 355 344 338 322 307 306 281 267 265 259 257 253 244 217 211 216 225 227 192 165 160 131 96 265 223 222 210 215 185 184 187 199 191 183
49 34 23 10 354 335 332 327 326 334 326 305 305 313 303 284 236 228 221 221 230 225 198 157 169 176 202 229 161 221 204 195 164 188 193 198 196 190
51 39 17 11 7 341 331 328 325 329 337 333 326 332 324 307 313 282 251 227 219 206 188 163 207 197 207 231 192 226 214 185 182 196 183 158 58 147
46 52 19 357 16 351 340 341 345 338 335 334 326 331 326 342 329 329 327 328 353 156 229 187 241 101 101 97 110 213 21 10 169 166 155 159 150 152
51 42 67 329 5 14 342 349 360 353 1 1 353 5 10 9 30 73 54 135 149 134 85 96 134 129 134 205 219 137 108 104 94 174 184 124 169 185
49 46 41 355 335 12 331 348 356 8 11 16 33 29 24 40 53 66 75 82 96 113 121 117 118 105 87 65 103 122 120 110 133 170 196 225 350 86